Temp
-13 -13 -13 -13 -13 -13 -13 -13 -13 -13 -13 -13 -12 -13 -12 -12 -12 -13 -12 -12 -12 -12 -12 -12 -12 -12 -12 -13 -13 -13 -13 -13
-13 -13 -12 -12 -13 -13 -13 -13 -13 -13 -13 -13 -13 -13 -13 -13 -13 -13 -13 -13 -12 -13 -12 -12 -12 -12 -12 -13 -13 -13 -13 -13
-13 -13 -12 -12 -12 -13 -13 -13 -13 -12 -12 -13 -13 -13 -13 -13 -13 -13 -13 -13 -13 -13 -12 -12 -12 -12 -13 -13 -13 -13 -13 -13
-13 -13 -12 -12 -12 -13 -13 -13 -13 -12 -11 -12 -12 -13 -13 -13 -13 -13 -13 -13 -13 -13 -13 -13 -13 -13 -13 -13 -13 -13 -14 -14
-13 -13 -12 -12 -12 -12 -13 -13 -13 -13 -13 -13 -13 -13 -14 -14 -14 -13 -13 -14 -14 -13 -14 -13 -13 -13 -13 -13 -14 -14 -14 -14
-13 -13 -13 -12 -13 -12 -12 -13 -13 -13 -14 -13 -14 -14 -14 -14 -14 -14 -13 -14 -14 -14 -14 -14 -14 -14 -14 -14 -14 -14 -14 -15
-13 -14 -13 -13 -13 -13 -13 -13 -13 -13 -13 -13 -13 -13 -13 -13 -14 -14 -14 -14 -14 -14 -14 -14 -14 -14 -14 -14 -14 -14 -14 -15
-13 -14 -13 -13 -13 -13 -13 -13 -13 -14 -14 -14 -13 -13 -13 -14 -13 -13 -14 -14 -14 -14 -14 -14 -14 -14 -14 -15 -14 -14 -15 -15
-13 -14 -13 -13 -13 -13 -13 -14 -14 -13 -14 -14 -14 -14 -14 -13 -13 -13 -14 -14 -14 -14 -14 -14 -14 -14 -14 -15 -15 -14 -15 -15
-14 -14 -13 -14 -13 -13 -14 -14 -14 -14 -14 -14 -14 -14 -14 -14 -14 -13 -13 -13 -14 -14 -14 -14 -14 -14 -14 -14 -14 -14 -14 -15
-14 -14 -14 -14 -14 -14 -14 -14 -14 -14 -14 -14 -14 -14 -14 -14 -14 -14 -14 -14 -14 -14 -14 -14 -15 -14 -15 -14 -15 -15 -15 -15
-14 -14 -15 -14 -14 -14 -14 -14 -14 -14 -14 -14 -14 -14 -14 -14 -14 -14 -14 -14 -14 -14 -14 -14 -14 -14 -14 -14 -15 -15 -15 -15
-14 -14 -15 -15 -15 -14 -14 -14 -14 -14 -14 -14 -14 -14 -14 -15 -14 -14 -14 -14 -14 -15 -15 -15 -15 -15 -14 -14 -14 -15 -15 -15
-14 -14 -15 -15 -15 -14 -15 -15 -15 -15 -15 -15 -15 -15 -15 -15 -15 -15 -14 -14 -14 -14 -14 -14 -14 -14 -14 -14 -14 -15 -15 -14
-15 -15 -15 -15 -15 -15 -15 -15 -15 -15 -15 -15 -15 -15 -15 -15 -15 -15 -14 -14 -14 -14 -14 -14 -14 -15 -15 -15 -15 -14 -15 -15
-16 -16 -16 -16 -16 -15 -15 -15 -15 -15 -15 -15 -15 -16 -15 -15 -15 -15 -15 -15 -15 -15 -14 -14 -15 -15 -15 -15 -15 -15 -15 -15
-16 -15 -16 -16 -15 -16 -16 -15 -16 -16 -15 -15 -15 -15 -15 -15 -15 -16 -15 -15 -15 -15 -15 -15 -15 -15 -15 -15 -15 -15 -15 -15
-16 -16 -16 -16 -16 -15 -16 -16 -16 -16 -16 -15 -15 -16 -16 -16 -16 -16 -16 -16 -16 -16 -16 -16 -15 -15 -15 -16 -16 -16 -16 -16
-16 -16 -16 -16 -16 -16 -16 -16 -16 -16 -16 -16 -16 -16 -16 -16 -16 -16 -16 -16 -16 -16 -16 -16 -16 -16 -17 -17 -17 -16 -16 -16
Height
5729 5728 5725 5724 5722 5720 5719 5718 5718 5717 5715 5715 5715 5715 5715 5717 5720 5723 5729 5734 5739 5741 5743 5746 5750 5754 5759 5762 5766 5768 5771 5775
5726 5726 5724 5722 5721 5719 5717 5716 5715 5713 5711 5711 5712 5711 5713 5716 5719 5722 5727 5731 5735 5737 5738 5740 5744 5748 5753 5757 5759 5762 5766 5768
5722 5723 5722 5721 5719 5718 5714 5711 5709 5705 5703 5705 5708 5710 5712 5713 5716 5720 5723 5727 5730 5732 5733 5734 5739 5746 5751 5754 5755 5758 5762 5764
5719 5720 5720 5719 5718 5717 5714 5710 5705 5701 5697 5701 5706 5709 5711 5713 5714 5717 5720 5724 5727 5729 5732 5736 5742 5746 5747 5749 5751 5754 5756 5758
5716 5716 5718 5717 5716 5715 5714 5710 5706 5701 5700 5704 5706 5708 5711 5711 5713 5715 5718 5721 5724 5727 5730 5735 5739 5742 5744 5746 5748 5750 5752 5752
5713 5713 5715 5715 5715 5714 5712 5710 5707 5705 5705 5706 5707 5708 5709 5711 5711 5714 5717 5719 5722 5724 5727 5731 5733 5737 5740 5741 5742 5744 5746 5746
5711 5711 5712 5713 5713 5712 5711 5709 5707 5707 5706 5706 5707 5707 5707 5707 5708 5711 5714 5716 5719 5721 5724 5727 5729 5731 5732 5735 5736 5738 5739 5740
5707 5708 5709 5710 5711 5711 5710 5709 5707 5706 5706 5705 5705 5705 5706 5707 5707 5707 5708 5712 5715 5718 5722 5724 5725 5725 5727 5729 5731 5732 5734 5736
5704 5705 5706 5707 5708 5709 5709 5708 5707 5706 5705 5705 5704 5704 5704 5704 5705 5705 5705 5709 5712 5714 5717 5718 5720 5720 5721 5722 5724 5727 5729 5730
5699 5700 5702 5703 5705 5706 5707 5706 5705 5704 5704 5704 5704 5703 5702 5703 5704 5705 5705 5706 5708 5710 5713 5715 5715 5716 5718 5720 5721 5722 5723 5724
5694 5696 5698 5699 5700 5702 5703 5703 5703 5703 5701 5701 5702 5702 5702 5703 5703 5703 5703 5704 5705 5707 5708 5708 5710 5712 5714 5716 5716 5717 5717 5718
5689 5691 5693 5694 5696 5696 5698 5699 5700 5700 5700 5699 5698 5699 5700 5700 5700 5699 5699 5700 5701 5703 5704 5705 5706 5708 5709 5709 5710 5711 5711 5711
5684 5686 5688 5689 5691 5692 5693 5694 5695 5696 5696 5697 5697 5697 5696 5696 5696 5696 5696 5697 5698 5699 5700 5700 5701 5701 5702 5703 5704 5705 5703 5704
5679 5680 5682 5683 5684 5686 5688 5689 5690 5691 5691 5691 5693 5694 5694 5692 5691 5692 5692 5692 5693 5693 5695 5695 5695 5695 5694 5695 5697 5696 5697 5697
5673 5674 5675 5676 5677 5679 5681 5682 5683 5684 5685 5686 5687 5688 5687 5687 5687 5687 5688 5687 5688 5688 5688 5689 5688 5688 5689 5688 5689 5687 5686 5686
5665 5666 5669 5669 5670 5672 5673 5675 5676 5676 5677 5679 5680 5679 5680 5680 5680 5680 5679 5679 5680 5679 5680 5681 5681 5680 5681 5681 5679 5678 5678 5676
5658 5661 5662 5663 5664 5666 5666 5667 5667 5667 5669 5671 5670 5671 5672 5672 5672 5672 5671 5671 5671 5671 5672 5672 5672 5672 5672 5671 5668 5666 5665 5665
5651 5653 5654 5655 5656 5658 5658 5659 5659 5660 5661 5662 5662 5662 5662 5663 5663 5662 5663 5663 5662 5663 5663 5663 5663 5661 5661 5659 5658 5654 5652 5651
5641 5643 5644 5646 5646 5647 5647 5649 5649 5650 5652 5652 5652 5653 5653 5653 5653 5653 5653 5652 5652 5652 5651 5650 5649 5650 5649 5648 5646 5643 5641 5640
Wind_Speed
12 13 11 11 12 13 11 11 11 12 16 17 20 16 16 28 29 31 38 41 36 36 43 39 53 51 44 40 35 35 32 31
10 13 11 11 13 13 13 14 15 20 21 21 18 18 16 24 29 35 41 39 30 28 34 40 47 52 46 42 38 36 33 35
9 11 11 11 12 12 12 16 21 23 24 26 25 20 20 21 25 27 32 35 31 28 26 21 39 43 36 37 31 31 32 31
8 8 11 9 9 11 12 14 20 15 15 25 24 19 17 21 27 29 28 23 23 20 17 18 24 24 27 26 27 29 28 28
9 7 9 5 7 10 10 12 13 14 2 13 16 17 17 22 17 19 21 21 22 21 15 18 25 28 28 28 29 30 31 28
12 8 8 5 4 6 10 9 9 8 6 7 12 15 21 24 19 16 20 15 16 15 19 26 21 24 32 35 31 29 30 23
12 11 10 8 4 5 8 8 7 6 5 4 5 8 12 18 21 18 19 21 23 19 23 26 25 24 29 33 29 32 34 29
12 12 11 11 7 7 7 7 7 8 6 8 7 7 8 6 8 11 25 29 29 26 26 28 30 28 29 33 36 36 32 24
14 16 13 13 11 11 10 8 7 8 7 8 8 10 10 8 7 8 8 23 25 24 22 24 17 19 27 29 28 28 25 25
15 18 15 14 15 15 12 11 10 8 8 8 11 10 10 10 11 10 8 8 9 9 12 16 18 17 19 21 21 22 25 26
18 19 19 18 17 16 15 15 12 9 9 9 9 11 15 13 12 11 12 13 15 17 19 18 18 20 20 23 20 21 24 25
21 23 24 23 19 19 18 16 15 15 12 11 11 11 13 17 15 15 17 18 18 20 22 22 23 26 27 25 24 25 28 28
23 25 25 26 25 23 20 17 18 19 20 17 14 15 15 13 19 22 22 21 22 21 20 20 21 23 28 29 30 30 30 32
24 27 28 28 29 27 25 22 21 25 23 23 20 18 17 16 17 18 19 21 24 25 27 28 28 30 29 29 31 32 37 39
28 29 30 31 31 30 28 29 30 28 25 26 25 24 21 24 25 25 25 24 23 25 27 27 26 28 29 28 35 30 37 38
32 33 33 35 35 34 34 32 33 32 31 30 30 31 32 33 31 33 32 32 31 32 31 29 27 28 26 28 32 33 34 40
35 36 37 37 37 37 37 36 36 37 36 33 33 33 34 36 37 33 36 35 37 37 37 36 34 32 31 32 36 39 40 42
35 41 43 43 42 41 42 42 42 42 39 39 37 36 37 38 39 39 38 38 40 40 41 41 42 43 43 41 41 45 46 46
36 39 41 47 47 48 48 47 48 46 44 44 44 42 42 43 42 40 39 38 39 40 41 42 45 47 48 49 50 50 52 51
Wind_Direction
305 309 316 318 318 318 311 303 289 275 278 269 259 253 241 222 220 226 228 228 237 241 243 228 224 226 223 227 234 243 247 252
290 303 308 314 311 312 311 304 302 290 268 253 248 253 249 215 222 230 231 234 229 245 236 238 240 226 227 230 230 239 247 255
276 297 303 315 310 306 313 314 317 305 247 235 239 239 255 234 211 224 233 234 239 242 233 229 236 229 230 232 234 242 246 251
261 284 298 316 310 306 315 322 337 325 250 218 234 245 249 244 221 222 232 227 216 220 214 217 221 222 229 233 237 242 246 254
267 271 280 297 309 315 317 325 342 357 297 215 222 243 245 263 260 216 217 224 215 220 237 245 245 239 250 255 257 261 258 266
259 266 266 231 287 319 320 331 334 357 37 257 246 237 248 258 256 240 241 259 248 241 256 256 260 253 246 250 256 256 261 255
253 264 262 239 265 310 310 323 330 316 299 277 263 264 273 261 245 252 248 249 241 247 258 260 267 263 251 251 255 263 264 268
240 259 257 252 246 286 303 302 315 317 294 279 272 269 264 258 265 273 241 244 244 242 246 254 261 261 250 244 255 264 266 253
233 251 255 257 254 270 280 283 300 308 303 280 279 280 277 280 285 291 252 239 249 253 254 255 258 264 258 253 256 254 256 255
229 243 248 256 264 272 265 266 276 283 281 287 269 271 275 274 272 262 247 232 228 234 245 251 261 258 257 258 261 264 262 261
228 236 245 255 266 261 258 266 272 263 265 281 286 275 262 259 263 268 268 254 239 245 255 255 254 254 257 265 268 267 266 267
236 229 243 252 263 256 255 265 258 266 265 264 269 270 269 265 263 259 257 259 262 266 268 267 265 264 262 261 267 270 273 273
232 232 240 249 255 259 254 256 264 268 276 272 265 264 256 262 261 267 266 261 256 253 256 264 275 274 263 263 265 265 267 267
236 236 240 243 247 254 251 257 262 276 277 273 272 270 264 262 262 266 267 262 252 253 257 264 272 259 258 261 264 267 267 262
237 238 240 243 247 251 256 258 262 267 275 274 274 275 268 275 272 272 266 266 265 268 268 268 269 268 266 275 271 280 261 261
232 234 237 243 246 252 256 258 259 263 269 275 274 271 265 271 277 278 278 268 263 263 264 262 263 266 272 280 282 276 273 271
232 236 239 248 250 254 259 258 258 264 270 273 272 274 270 274 274 276 276 273 266 265 267 265 262 264 266 275 279 280 276 274
248 246 243 246 251 254 256 258 263 267 269 271 271 272 272 273 274 274 271 269 268 270 270 270 271 273 276 280 282 279 277 275
248 252 252 251 248 246 250 253 258 260 266 270 269 269 270 274 277 273 272 266 268 270 273 275 275 276 277 278 278 277 279 280